TimeAST,TemperatureF,Dew PointF,Humidity,Sea Level PressureIn,VisibilityMPH,Wind Direction,Wind SpeedMPH,Gust SpeedMPH,PrecipitationIn,Events,Conditions,WindDirDegrees,DateUTC
12:56 AM,81.0,73.0,77,30.05,10.0,Calm,Calm,-,N/A,,Partly Cloudy,0,2014-07-30 04:56:00
1:56 AM,80.1,73.0,79,30.04,10.0,Calm,Calm,-,N/A,,Partly Cloudy,0,2014-07-30 05:56:00
2:56 AM,80.1,73.0,79,30.03,10.0,Calm,Calm,-,N/A,,Partly Cloudy,0,2014-07-30 06:56:00
3:56 AM,80.1,73.0,79,30.02,10.0,Calm,Calm,-,N/A,,Partly Cloudy,0,2014-07-30 07:56:00
4:56 AM,79.0,73.9,84,30.02,10.0,Calm,Calm,-,N/A,,Partly Cloudy,0,2014-07-30 08:56:00
5:56 AM,79.0,73.9,84,30.03,10.0,Calm,Calm,-,N/A,,Partly Cloudy,0,2014-07-30 09:56:00
6:56 AM,80.1,73.9,81,30.04,10.0,Calm,Calm,-,N/A,,Partly Cloudy,0,2014-07-30 10:56:00
7:56 AM,82.0,73.9,76,30.04,10.0,East,6.9,-,N/A,,Partly Cloudy,90,2014-07-30 11:56:00
8:56 AM,84.0,73.9,72,30.04,10.0,East,10.4,-,N/A,,Partly Cloudy,90,2014-07-30 12:56:00
9:56 AM,84.9,73.9,69,30.05,10.0,ENE,9.2,-,N/A,,Scattered Clouds,70,2014-07-30 13:56:00
10:56 AM,88.0,73.9,63,30.04,10.0,NE,16.1,-,N/A,,Scattered Clouds,50,2014-07-30 14:56:00
11:56 AM,88.0,73.9,63,30.03,10.0,NE,13.8,-,N/A,,Scattered Clouds,50,2014-07-30 15:56:00
12:56 PM,89.1,75.0,63,30.01,10.0,NE,20.7,-,N/A,,Scattered Clouds,50,2014-07-30 16:56:00
1:56 PM,89.1,73.9,61,30.00,10.0,ENE,20.7,25.3,N/A,,Partly Cloudy,60,2014-07-30 17:56:00
2:56 PM,89.1,73.0,59,29.97,10.0,ENE,19.6,-,N/A,,Scattered Clouds,60,2014-07-30 18:56:00
3:56 PM,84.9,73.9,69,29.98,10.0,ENE,17.3,-,N/A,,Scattered Clouds,60,2014-07-30 19:56:00
4:56 PM,84.9,73.0,67,29.99,10.0,ENE,11.5,-,N/A,,Scattered Clouds,70,2014-07-30 20:56:00
5:56 PM,84.0,73.0,69,29.99,10.0,East,12.7,-,N/A,,Scattered Clouds,80,2014-07-30 21:56:00
6:56 PM,82.9,73.0,72,29.99,10.0,ENE,9.2,-,N/A,,Scattered Clouds,70,2014-07-30 22:56:00
7:56 PM,81.0,73.9,79,30.01,10.0,East,5.8,-,N/A,,Scattered Clouds,80,2014-07-30 23:56:00
8:56 PM,82.0,73.9,76,30.02,10.0,East,3.5,-,N/A,,Partly Cloudy,100,2014-07-31 00:56:00
9:56 PM,82.0,73.9,76,30.04,10.0,East,4.6,-,N/A,,Partly Cloudy,90,2014-07-31 01:56:00
10:56 PM,80.1,73.9,81,30.04,10.0,East,3.5,-,N/A,,Partly Cloudy,100,2014-07-31 02:56:00
11:56 PM,81.0,73.0,77,30.03,10.0,Calm,Calm,-,N/A,,Partly Cloudy,0,2014-07-31 03:56:00